Time,TemperatureF,DewpointF,PressureIn,WindDirection,WindDirectionDegrees,WindSpeedMPH,WindSpeedGustMPH,Humidity,HourlyPrecipIn,Conditions,Clouds,dailyrainin,SoftwareType,DateUTC
2013-09-15 00:21:00,52.0,49.0,-100.00,SW,214,2.0,3.0,88,-99.99,,,-99.99,,2013-09-15 06:21:00,
2013-09-15 00:32:00,52.0,49.0,-100.00,SW,214,2.0,3.0,88,-99.99,,,-99.99,,2013-09-15 06:32:00,
2013-09-15 01:22:00,51.0,48.0,-100.00,SW,230,2.0,4.0,89,-99.99,,,-99.99,,2013-09-15 07:22:00,
2013-09-15 01:33:00,51.0,48.0,-100.00,SW,230,2.0,4.0,89,-99.99,,,-99.99,,2013-09-15 07:33:00,
2013-09-15 02:21:00,49.0,46.0,-100.00,WSW,243,3.0,5.0,90,-99.99,,,-99.99,,2013-09-15 08:21:00,
2013-09-15 02:32:00,49.0,46.0,-100.00,WSW,243,3.0,5.0,90,-99.99,,,-99.99,,2013-09-15 08:32:00,
2013-09-15 03:21:00,47.0,45.0,-100.00,WSW,250,2.0,4.0,90,-99.99,,,-99.99,,2013-09-15 09:21:00,
2013-09-15 03:33:00,47.0,45.0,-100.00,WSW,250,2.0,4.0,90,-99.99,,,-99.99,,2013-09-15 09:33:00,
2013-09-15 04:23:00,46.0,44.0,-100.00,WSW,254,3.0,4.0,90,-99.99,,,-99.99,,2013-09-15 10:23:00,
2013-09-15 04:32:00,46.0,44.0,-100.00,WSW,254,3.0,4.0,90,-99.99,,,-99.99,,2013-09-15 10:32:00,
2013-09-15 04:53:00,47.0,45.0,-100.00,WSW,254,3.0,5.0,92,-99.99,,,-99.99,,2013-09-15 10:53:00,
2013-09-15 05:22:00,48.0,46.0,-100.00,SSE,155,1.0,2.0,91,-99.99,,,-99.99,,2013-09-15 11:22:00,
2013-09-15 05:33:00,48.0,46.0,-100.00,SSE,155,1.0,2.0,91,-99.99,,,-99.99,,2013-09-15 11:33:00,
2013-09-15 06:21:00,48.0,45.0,-100.00,NNE,32,1.0,2.0,91,-99.99,,,-99.99,,2013-09-15 12:21:00,
2013-09-15 06:31:00,48.0,45.0,-100.00,NNE,32,1.0,2.0,91,-99.99,,,-99.99,,2013-09-15 12:31:00,
2013-09-15 06:52:00,49.0,46.0,-100.00,SSE,167,1.0,2.0,91,-99.99,,,-99.99,,2013-09-15 12:52:00,
2013-09-15 07:21:00,47.0,45.0,-100.00,East,100,1.0,2.0,91,-99.99,,,-99.99,,2013-09-15 13:21:00,
2013-09-15 07:32:00,47.0,45.0,-100.00,East,100,1.0,2.0,91,-99.99,,,-99.99,,2013-09-15 13:32:00,
2013-09-15 08:22:00,47.0,45.0,-100.00,ESE,102,2.0,4.0,91,-99.99,,,-99.99,,2013-09-15 14:22:00,
2013-09-15 13:21:00,68.0,49.0,-100.00,SW,215,5.0,9.0,51,-99.99,,,-99.99,,2013-09-15 19:21:00,
2013-09-15 13:32:00,68.0,49.0,-100.00,SW,215,5.0,9.0,51,-99.99,,,-99.99,,2013-09-15 19:32:00,
2013-09-15 13:52:00,66.0,51.0,-100.00,WSW,241,8.0,12.0,57,-99.99,,,-99.99,,2013-09-15 19:52:00,
2013-09-15 14:02:00,66.0,51.0,-100.00,WSW,241,8.0,12.0,57,-99.99,,,-99.99,,2013-09-15 20:02:00,
2013-09-15 14:22:00,66.0,50.0,-100.00,West,264,6.0,11.0,55,-99.99,,,-99.99,,2013-09-15 20:22:00,
2013-09-15 14:32:00,66.0,50.0,-100.00,West,264,6.0,11.0,55,-99.99,,,-99.99,,2013-09-15 20:32:00,
2013-09-15 15:21:00,68.0,53.0,-100.00,South,170,4.0,8.0,59,-99.99,,,-99.99,,2013-09-15 21:21:00,
2013-09-15 15:34:00,68.0,53.0,-100.00,South,170,4.0,8.0,59,-99.99,,,-99.99,,2013-09-15 21:34:00,
2013-09-15 16:23:00,66.0,53.0,-100.00,WSW,244,2.0,5.0,63,-99.99,,,-99.99,,2013-09-15 22:23:00,
2013-09-15 16:33:00,66.0,53.0,-100.00,WSW,244,2.0,5.0,63,-99.99,,,-99.99,,2013-09-15 22:33:00,
2013-09-15 17:22:00,68.0,53.0,-100.00,WSW,239,2.0,5.0,58,-99.99,,,-99.99,,2013-09-15 23:22:00,
2013-09-15 17:33:00,68.0,53.0,-100.00,WSW,239,2.0,5.0,58,-99.99,,,-99.99,,2013-09-15 23:33:00,
2013-09-15 18:22:00,67.0,52.0,-100.00,ESE,123,3.0,6.0,57,-99.99,,,-99.99,,2013-09-16 00:22:00,
2013-09-15 18:32:00,67.0,52.0,-100.00,ESE,123,3.0,6.0,57,-99.99,,,-99.99,,2013-09-16 00:32:00,
2013-09-15 19:21:00,69.0,50.0,-100.00,SSW,211,2.0,6.0,50,-99.99,,,-99.99,,2013-09-16 01:21:00,
2013-09-15 19:31:00,69.0,50.0,-100.00,SSW,211,2.0,6.0,50,-99.99,,,-99.99,,2013-09-16 01:31:00,
2013-09-15 20:22:00,59.0,51.0,-100.00,WSW,257,5.0,7.0,75,-99.99,,,-99.99,,2013-09-16 02:22:00,
2013-09-15 20:32:00,59.0,51.0,-100.00,WSW,257,5.0,7.0,75,-99.99,,,-99.99,,2013-09-16 02:32:00,
2013-09-15 21:22:00,55.0,49.0,-100.00,WSW,242,4.0,7.0,79,-99.99,,,-99.99,,2013-09-16 03:22:00,
2013-09-15 21:34:00,55.0,49.0,-100.00,WSW,242,4.0,7.0,79,-99.99,,,-99.99,,2013-09-16 03:34:00,
2013-09-15 22:24:00,52.0,48.0,-100.00,SW,233,2.0,4.0,85,-99.99,,,-99.99,,2013-09-16 04:24:00,
2013-09-15 22:34:00,52.0,48.0,-100.00,SW,233,2.0,4.0,85,-99.99,,,-99.99,,2013-09-16 04:34:00,
2013-09-15 23:22:00,51.0,48.0,-100.00,SW,224,3.0,5.0,87,-99.99,,,-99.99,,2013-09-16 05:22:00,
2013-09-15 23:33:00,51.0,48.0,-100.00,SW,224,3.0,5.0,87,-99.99,,,-99.99,,2013-09-16 05:33:00,